Notices

What's New in latest Release from April 7th, 2021:

- Updated Glossary, including Speed of Maximum Gust, and Total Hourly Precipitation

- Updated national and regional climate services offices contacts and prices information

- Addition of station inventory lists for 1981-2010, 1971-2000, and 1961-1990 Normals.

If you haven't already, please take our survey and provide feedback about our website: https://eccc.sondage-survey.ca/f/LanguageSelection.aspx?s=442ca660-fcf1-47c0-95a9-59707d6fd709

Hourly Data Report for September 15, 2015

IQALUIT CLIMATE
NUNAVUT

63°44'50.000" N
68°32'40.000" W
33.50 m
2402592
71321
XFB

Download Data

Hourly Data (September 2015)
Hourly Data Report for September 15, 2015
TIME
LST
Temp Definition
°C
Dew Point Definition
°C
Rel Hum Definition
%
Precip. Amount Definition
mm

Wind Dir Definition
10's deg

Wind Spd Definition
km/h
Visibility Definition
km
Stn Press Definition
kPa
Hmdx Definition


Wind Chill Definition


Weather Definition


00:00 3.0 2.2 95 0.0 33 9   100.18     LegendNANA
01:00 3.0 1.8 92 0.2 33 6   100.22     LegendNANA
02:00 2.4 1.3 93 0.0 15 2   100.29     LegendNANA
03:00 2.1 1.3 95 0.0 11 3   100.38     LegendNANA
04:00 1.6 0.8 95 0.0 15 5   100.46     LegendNANA
05:00 1.6 0.7 94 0.0 3 2   100.52     LegendNANA
06:00 2.8 0.9 87 0.0 26 7   100.62     LegendNANA
07:00 4.6 0.5 75 0.0 22 5   100.68     LegendNANA
08:00 4.7 -0.6 69 0.0 19 7   100.75     LegendNANA
09:00 4.9 0.6 74 0.0 18 6   100.84     LegendNANA
10:00 5.4 0.8 72 0.0 24 10   100.89     LegendNANA
11:00 5.5 1.1 73 0.0 17 11   100.89     LegendNANA
12:00 6.7 0.7 66 0.0 21 7   100.94     LegendNANA
13:00 5.7 0.8 71 0.0 15 12   100.99     LegendNANA
14:00 7.4 1.4 66 0.0 24 18   101.02     LegendNANA
15:00 7.0 1.6 69 0.0 20 7   101.08     LegendNANA
16:00 6.4 1.2 69 0.0 24 12   101.14     LegendNANA
17:00 4.2 1.0 80 0.0 16 9   101.21     LegendNANA
18:00 5.2 1.1 75 0.0 26 9   101.25     LegendNANA
19:00 5.2 1.1 75 0.0 24 13   101.30     LegendNANA
20:00 4.6 1.1 78 0.0 22 7   101.36     LegendNANA
21:00 5.2 1.3 76 0.0 21 8   101.39     LegendNANA
22:00 4.4 0.8 78 0.0 24 12   101.42     LegendNANA
23:00 3.4 0.3 80 0.0 27 3   101.51     LegendNANA

Notes on Data Quality.

Legend

  • E = Estimated
  • M = Missing
  • NA = Not Available*
  • [empty] = Indicates an unobserved value
Date modified: